Oxford, NC

5:58 AM EDT on August 17, 2017 (GMT -0400)
Henderson-Oxford

Weather History for KHNZ - March, 2013

Change the Weather History Date:

Wednesday, March 6, 2013

  Actual Average (KTDF) Record (KTDF)
Temperature  
Mean Temperature 36 °F -  
Max Temperature 41 °F 59 °F 80 °F (1976)
Min Temperature 32 °F 35 °F 13 °F (1960)
Degree Days  
Heating Degree Days 28    
Moisture  
Dew Point 32 °F    
Average Humidity 83    
Maximum Humidity 97    
Minimum Humidity 64    
Precipitation  
Precipitation 0.07 in - - ()
Sea Level Pressure  
Sea Level Pressure 29.71 in    
Wind  
Wind Speed 10 mph (NW)    
Max Wind Speed 23 mph    
Max Gust Speed 37 mph    
Visibility 7 miles    
Events Rain , Snow    
Averages and records for this station are not official NWS values.
T = Trace of Precipitation, MM = Missing Value Source: NWS Daily Summary

Daily Weather History Graph

Daily Weather History Graph

Search for Another Location

Airport or City:

Trip Planner

Search our weather history database for the weather conditions in past years. The results will help you decide how hot, cold, wet, or windy it might be!

Date:

Astronomy

Mar. 06, 2013 Rise Set
Actual Time 6:37 AM EST 6:13 PM EST
Civil Twilight 6:11 AM EST 6:39 PM EST
Nautical Twilight 5:41 AM EST 7:09 PM EST
Astronomical Twilight 5:12 AM EST 7:39 PM EST
Moon 2:37 AM EST (3/6) 1:00 PM EST (3/6)
Length of Visible Light 12h 27m
Length of Day
11h 36m
Waning Crescent, 30% of the Moon is Illuminated
Mar 6
Waning Crescent
Mar 11
New
Mar 19
First Quarter
Mar 27
Full
Apr 3
Last Quarter

Hourly Weather History & Observations

Time (EST) Temp. Windchill Dew Point Humidity Pressure Visibility Wind Dir Wind Speed Gust Speed Precip Events Conditions
12:15 AM 37.4 °F 32.8 °F 36.0 °F 95% 29.58 in 7.0 mi ENE 5.8 mph - N/A   Overcast
12:35 AM 37.4 °F 32.8 °F 36.0 °F 95% 29.56 in 4.0 mi NE 5.8 mph - N/A Rain Light Rain
12:55 AM 37.0 °F 32.4 °F 36.0 °F 96% 29.55 in 4.0 mi NE 5.8 mph - N/A   Overcast
1:15 AM 37.0 °F 33.3 °F 36.0 °F 96% 29.53 in 2.5 mi NE 4.6 mph - N/A   Overcast
1:55 AM 36.9 °F 32.2 °F 36.0 °F 97% 29.52 in 2.0 mi North 5.8 mph - N/A   Light Drizzle
2:15 AM 36.5 °F 31.0 °F 35.6 °F 97% 29.51 in 2.5 mi NNW 6.9 mph - N/A Rain Rain
2:35 AM 36.5 °F 31.0 °F 35.6 °F 97% 29.51 in 2.0 mi NW 6.9 mph - 0.01 in   Drizzle
2:55 AM 36.0 °F 29.6 °F 35.1 °F 97% 29.51 in 2.5 mi NNW 8.1 mph - 0.03 in Rain Rain
3:15 AM 36.0 °F 31.1 °F 35.1 °F 97% 29.51 in 4.0 mi NW 5.8 mph - 0.01 in Rain Rain
3:35 AM 36.0 °F 29.6 °F 35.1 °F 97% 29.51 in 7.0 mi NW 8.1 mph - 0.01 in   Light Drizzle
3:55 AM 36.1 °F 29.9 °F 35.2 °F 97% 29.52 in 7.0 mi WNW 8.1 mph - 0.01 in Rain Light Rain
4:15 AM 36.0 °F 30.3 °F 35.1 °F 97% 29.53 in 10.0 mi WNW 6.9 mph - N/A   Drizzle
4:35 AM 35.8 °F 28.3 °F 34.7 °F 96% 29.54 in 10.0 mi WNW 10.4 mph 19.6 mph N/A   Light Drizzle
4:55 AM 34.7 °F 26.9 °F 33.4 °F 95% 29.55 in 7.0 mi NW 10.4 mph 18.4 mph N/A   Drizzle
5:15 AM 34.2 °F 27.5 °F 32.4 °F 93% 29.55 in 10.0 mi NW 8.1 mph - N/A Rain Light Rain
5:35 AM 34.0 °F 27.2 °F 32.0 °F 92% 29.56 in 10.0 mi WNW 8.1 mph 17.3 mph N/A   Overcast
5:55 AM 33.8 °F 24.8 °F 32.0 °F 93% 29.56 in 5.0 mi WNW 12.7 mph 17.3 mph N/A Snow Light Snow
6:55 AM 34.2 °F 26.8 °F 32.2 °F 92% 29.56 in 10.0 mi WNW 9.2 mph 24.2 mph N/A Rain Light Rain
7:15 AM 34.0 °F 25.0 °F 32.0 °F 92% 29.57 in 7.0 mi WNW 12.7 mph 19.6 mph N/A Rain Light Rain
7:35 AM 33.8 °F 27.7 °F 32.0 °F 93% 29.58 in 2.0 mi WNW 6.9 mph 16.1 mph N/A Snow Light Snow
7:55 AM 34.2 °F 27.5 °F 32.5 °F 94% 29.58 in 10.0 mi West 8.1 mph 17.3 mph N/A Rain Light Rain
8:15 AM 34.7 °F 24.3 °F 32.0 °F 90% 29.58 in 5.0 mi West 17.3 mph 27.6 mph N/A Rain Light Rain
8:35 AM 34.5 °F 26.2 °F 32.0 °F 90% 29.59 in 2.5 mi West 11.5 mph 21.9 mph 0.01 in Snow Light Snow
8:55 AM 33.3 °F 24.1 °F 31.6 °F 94% 29.60 in 1.2 mi West 12.7 mph 24.2 mph 0.01 in Snow Light Snow
9:15 AM 33.1 °F 23.0 °F 31.8 °F 95% 29.60 in 1.5 mi West 15.0 mph 19.6 mph N/A Snow Light Snow
9:35 AM 33.1 °F 23.4 °F 31.8 °F 95% 29.60 in 0.8 mi WNW 13.8 mph 20.7 mph N/A Snow Light Snow
9:55 AM 32.9 °F 23.7 °F 31.6 °F 95% 29.61 in 0.8 mi West 12.7 mph 23.0 mph N/A Snow Light Snow
10:15 AM 33.3 °F 23.7 °F 31.8 °F 94% 29.60 in 2.0 mi WNW 13.8 mph 24.2 mph N/A Snow Light Snow
10:35 AM 33.8 °F 24.3 °F 31.8 °F 92% 29.61 in 2.0 mi West 13.8 mph 27.6 mph N/A Snow Light Snow
10:55 AM 34.7 °F 24.7 °F 32.0 °F 90% 29.61 in 5.0 mi West 16.1 mph 26.5 mph N/A Snow Light Snow
11:15 AM 35.1 °F 26.9 °F 31.3 °F 86% 29.62 in 10.0 mi West 11.5 mph 26.5 mph N/A   Overcast
11:35 AM 36.0 °F 27.1 °F 30.6 °F 81% 29.62 in 10.0 mi WNW 13.8 mph 27.6 mph N/A   Overcast
11:55 AM 36.7 °F 27.6 °F 30.4 °F 78% 29.63 in 10.0 mi WNW 15.0 mph 23.0 mph N/A   Overcast
12:15 PM 37.8 °F 29.4 °F 30.0 °F 74% 29.63 in 10.0 mi WNW 13.8 mph 28.8 mph N/A   Overcast
12:35 PM 38.3 °F 29.3 °F 30.6 °F 74% 29.64 in 10.0 mi WNW 16.1 mph 32.2 mph N/A   Overcast
12:55 PM 37.8 °F 28.6 °F 32.0 °F 80% 29.64 in 7.0 mi WNW 16.1 mph 27.6 mph N/A Rain Light Rain
1:15 PM 36.7 °F 26.6 °F 32.5 °F 85% 29.65 in 4.0 mi WNW 18.4 mph 28.8 mph N/A Rain Light Rain
1:35 PM 36.9 °F 29.1 °F 33.4 °F 87% 29.65 in 5.0 mi WNW 11.5 mph 27.6 mph N/A   Drizzle
1:55 PM 37.4 °F 27.5 °F 33.6 °F 86% 29.66 in 5.0 mi NW 18.4 mph 34.5 mph N/A   Drizzle
2:15 PM 38.3 °F 30.1 °F 34.5 °F 86% 29.67 in 7.0 mi NW 13.8 mph 34.5 mph N/A   Light Drizzle
2:35 PM 39.7 °F 30.3 °F 34.7 °F 82% 29.68 in 10.0 mi NW 19.6 mph 26.5 mph N/A   Overcast
2:55 PM 40.1 °F 29.9 °F 34.2 °F 79% 29.70 in 10.0 mi NW 23.0 mph 31.1 mph N/A   Light Drizzle
3:15 PM 41.2 °F 33.7 °F 34.2 °F 76% 29.71 in 10.0 mi NW 13.8 mph 25.3 mph N/A   Light Drizzle
3:35 PM 41.0 °F 32.8 °F 33.3 °F 74% 29.73 in 10.0 mi NNW 16.1 mph 28.8 mph N/A Rain Rain
3:55 PM 40.1 °F 31.3 °F 34.0 °F 79% 29.75 in 7.0 mi NNW 17.3 mph 36.8 mph 0.01 in Rain Light Rain
4:15 PM 40.1 °F 30.2 °F 34.3 °F 80% 29.77 in 10.0 mi NNW 21.9 mph 27.6 mph N/A Rain Light Rain
4:35 PM 40.5 °F 31.8 °F 33.8 °F 77% 29.79 in 10.0 mi NW 17.3 mph 29.9 mph 0.01 in Rain Light Rain
4:55 PM 41.0 °F 34.3 °F 34.0 °F 76% 29.81 in 10.0 mi NW 11.5 mph 23.0 mph 0.01 in   Light Drizzle
5:15 PM 40.8 °F 32.6 °F 34.2 °F 77% 29.83 in 7.0 mi NW 16.1 mph 25.3 mph N/A   Light Drizzle
5:35 PM 41.0 °F 32.5 °F 33.3 °F 74% 29.85 in 7.0 mi NNW 17.3 mph 28.8 mph N/A Rain Light Rain
5:55 PM 40.6 °F 32.7 °F 32.9 °F 74% 29.87 in 10.0 mi NNW 15.0 mph 24.2 mph N/A Rain Light Rain
6:15 PM 40.5 °F 32.8 °F 32.9 °F 74% 29.89 in 10.0 mi NNW 13.8 mph 25.3 mph N/A Rain Light Rain
6:35 PM 40.3 °F 32.6 °F 32.5 °F 74% 29.90 in 10.0 mi NNW 13.8 mph 17.3 mph N/A Rain Light Rain
6:55 PM 41.0 °F 32.5 °F 31.8 °F 70% 29.92 in 10.0 mi NNW 17.3 mph 25.3 mph N/A   Overcast
7:15 PM 41.5 °F 35.4 °F 30.6 °F 65% 29.94 in 10.0 mi NNW 10.4 mph 25.3 mph N/A   Overcast
7:35 PM 41.4 °F 35.2 °F 30.2 °F 65% 29.94 in 10.0 mi NNW 10.4 mph 25.3 mph N/A   Overcast
7:55 PM 41.2 °F 33.0 °F 29.8 °F 64% 29.95 in 10.0 mi NNW 16.1 mph 27.6 mph N/A   Overcast
8:15 PM 41.0 °F 33.9 °F 29.7 °F 64% 29.97 in 10.0 mi NNW 12.7 mph 28.8 mph N/A   Overcast
8:35 PM 40.8 °F 33.7 °F 29.8 °F 65% 29.97 in 10.0 mi North 12.7 mph 26.5 mph N/A   Overcast
8:55 PM 40.6 °F 33.8 °F 29.3 °F 64% 29.97 in 10.0 mi NNW 11.5 mph 19.6 mph N/A   Overcast
9:15 PM 39.9 °F 33.9 °F 29.1 °F 65% 29.97 in 10.0 mi NNW 9.2 mph 17.3 mph N/A   Mostly Cloudy
9:35 PM 39.0 °F 32.3 °F 28.9 °F 67% 29.98 in 10.0 mi NW 10.4 mph - N/A   Scattered Clouds
9:55 PM 38.7 °F 33.6 °F 28.8 °F 68% 29.98 in 10.0 mi NW 6.9 mph - N/A   Clear
10:15 PM 38.3 °F 33.2 °F 29.1 °F 70% 29.99 in 10.0 mi NW 6.9 mph - N/A   Clear
10:35 PM 38.1 °F 31.2 °F 29.5 °F 71% 30.00 in 10.0 mi NW 10.4 mph 17.3 mph N/A   Clear
10:55 PM 37.4 °F 32.1 °F 29.3 °F 73% 30.00 in 10.0 mi NW 6.9 mph - N/A   Clear
11:15 PM 36.9 °F 31.4 °F 29.1 °F 74% 30.00 in 10.0 mi NW 6.9 mph - N/A   Clear
11:35 PM 36.9 °F 32.2 °F 28.8 °F 72% 30.01 in 10.0 mi WNW 5.8 mph - N/A   Clear
11:55 PM 36.7 °F 28.4 °F 28.6 °F 72% 30.01 in 10.0 mi NW 12.7 mph 17.3 mph N/A   Clear